Location: Caseificio
(44.7500°N, 11.0500°E)
Time: 22:39:42
(UTC+00:00)

Cosmos 2221 Rocket - Pass Details

Date: 26 May 2022
Orbit: 621 x 647 km, 82.5° (Epoch: 26 June)

Event Time Altitude Azimuth Distance (km) Brightness Sun altitude
Exits shadow 00:06:48 36° 273° (W) 996 4.5 -23.0°
Maximum altitude 00:07:10 36° 285° (WNW) 984 4.5 -23.0°
Drops below altitude 10° 00:11:16 10° 353° (N) 1,999 7.1 -22.8°
Sets 00:13:40 0° 1° (N) 2,910 8.3 -22.7°
